Date String (YYYY-MM-DD hh:mm:ss) UTC,Instrument flags,absolute air pressure of the measurement (hPa),sample flow rate (lpm),inlet stack bypass flow (lpm),air temperature of the measurement (°C),ambient temperature measured by the external sensor (°C),aerosol sample conditioner tube jacket temperature (°C),OPC LED temperature (°C),internal box temperature (°C),relative humidity of the measurement (%),span deviation,mass concentration of particles derived from Lorenz-Mie calculation of OPC scattering (μg/m³),mass concentration of particles derived from Lorenz-Mie calculation of OPC scattering (μg/m³),mass concentration of particles derived from Lorenz-Mie calculation of OPC scattering (μg/m³)
DateTimeUTC,F1_M11,P_M11,Q1_M11,Q2_M11,T1_M11,T2_M11,T3_M11,T4_M11,T5_M11,U1_M11,ZSPAN_M11,X0_M11,X2_M11,X1_M11
2024-02-02 20:00:00,SystemResetWarning,0815.0,5.00,000.00,023.3,022.8,000.0,031.5,025.0,13.0,0003.6,0022.47,0007.44,0006.36
2024-02-02 20:01:00,SystemResetWarning,0814.9,5.00,000.00,023.3,022.8,000.0,031.5,025.1,13.2,0003.3,0022.74,0007.44,0006.38
2024-02-02 20:02:00,SystemResetWarning,0815.0,5.01,000.00,023.4,022.8,000.0,031.5,025.0,13.3,0002.8,0023.78,0007.44,0006.37
2024-02-02 20:03:00,SystemResetWarning,0815.0,5.00,000.00,023.4,022.8,000.0,031.5,025.1,13.5,0002.6,0023.26,0007.40,0006.35
2024-02-02 20:04:00,SystemResetWarning,0815.0,4.99,000.00,023.4,022.8,000.0,031.5,025.1,13.5,0002.6,0023.53,0007.38,0006.33
2024-02-02 20:05:00,SystemResetWarning,0814.9,4.99,000.00,023.4,022.9,000.0,031.5,025.1,13.4,0002.6,0024.53,0007.37,0006.30
2024-02-02 20:06:00,SystemResetWarning,0814.9,4.99,000.00,023.4,022.9,000.0,031.6,025.1,13.6,0002.7,0023.84,0007.44,0006.31
2024-02-02 20:07:00,SystemResetWarning,0814.9,5.01,000.00,023.4,022.9,000.0,031.6,025.1,13.5,0003.0,0023.58,0007.40,0006.29
2024-02-02 20:08:00,SystemResetWarning,0814.9,5.01,000.00,023.4,022.9,000.0,031.6,025.1,13.6,0002.2,0023.34,0007.34,0006.27
2024-02-02 20:09:00,SystemResetWarning,0814.9,5.00,000.00,023.4,022.9,000.0,031.6,025.1,13.6,0001.9,0022.68,0007.31,0006.25
2024-02-02 20:10:00,SystemResetWarning,0814.9,5.01,000.00,023.5,022.9,000.0,031.6,025.1,13.7,0001.8,0020.71,0007.31,0006.22
2024-02-02 20:11:00,SystemResetWarning,0814.9,5.00,000.00,023.5,022.9,000.0,031.6,025.1,13.6,0001.7,0020.83,0007.33,0006.19
2024-02-02 20:12:00,SystemResetWarning,0814.9,5.00,000.00,023.5,022.9,000.0,031.6,025.1,13.6,0001.8,0021.03,0007.35,0006.15
2024-02-02 20:13:00,SystemResetWarning,0814.9,4.99,000.00,023.5,022.9,000.0,031.6,025.1,13.6,0002.1,0020.97,0007.39,0006.12
2024-02-02 20:14:00,SystemResetWarning,0814.9,4.99,000.00,023.5,022.9,000.0,031.6,025.2,13.8,0002.5,0022.86,0007.37,0006.10
2024-02-02 20:15:00,SystemResetWarning,0815.0,5.00,000.00,023.5,022.9,000.0,031.6,025.2,13.9,0001.0,0023.33,0007.34,0006.07
2024-02-02 20:16:00,SystemResetWarning,0814.9,5.00,000.00,023.5,022.9,000.0,031.7,025.2,13.8,0000.0,0024.11,0007.30,0006.05
2024-02-02 20:17:00,SystemResetWarning,0814.9,5.00,000.00,023.5,022.9,000.0,031.7,025.2,13.9,0000.9,0025.10,0007.21,0006.02
2024-02-02 20:18:00,SystemResetWarning,0814.9,5.00,000.00,023.5,022.9,000.0,031.7,025.2,14.2,0001.6,0026.71,0007.21,0005.99
2024-02-02 20:19:00,SystemResetWarning,0814.9,5.00,000.00,023.5,022.9,000.0,031.7,025.2,14.1,0001.9,0028.15,0007.28,0005.98
2024-02-02 20:20:00,SystemResetWarning,0814.9,5.00,000.00,023.5,022.9,000.0,031.7,025.2,13.8,0002.1,0027.78,0007.32,0005.96
2024-02-02 20:21:00,SystemResetWarning,0814.9,4.99,000.00,023.5,023.0,000.0,031.7,025.2,13.9,0002.7,0028.04,0007.26,0005.94
2024-02-02 20:22:00,SystemResetWarning,0814.9,4.99,000.00,023.5,023.0,000.0,031.7,025.2,13.9,0002.5,0028.19,0007.23,0005.93
2024-02-02 20:23:00,SystemResetWarning,0814.8,5.01,000.00,023.6,023.0,000.0,031.7,025.3,13.7,0002.7,0027.77,0007.24,0005.93
2024-02-02 20:24:00,SystemResetWarning,0814.8,5.00,000.00,023.6,023.0,000.0,031.7,025.3,13.7,0003.3,0027.13,0007.16,0005.91
2024-02-02 20:25:00,SystemResetWarning,0814.8,5.01,000.00,023.6,023.0,000.0,031.8,025.3,13.7,0003.6,0026.05,0007.19,0005.91
2024-02-02 20:26:00,SystemResetWarning,0814.8,5.00,000.00,023.6,023.0,000.0,031.8,025.3,13.6,0003.6,0026.86,0007.22,0005.91
2024-02-02 20:27:00,SystemResetWarning,0814.8,5.01,000.00,023.6,023.0,000.0,031.8,025.3,13.7,0003.7,0027.21,0007.27,0005.92
2024-02-02 20:28:00,SystemResetWarning,0814.8,4.99,000.00,023.6,023.0,000.0,031.8,025.4,13.8,0003.9,0028.02,0007.28,0005.92
2024-02-02 20:29:00,SystemResetWarning,0814.7,5.00,000.00,023.6,023.1,000.0,031.8,025.4,13.8,0004.1,0027.43,0007.23,0005.93
2024-02-02 20:30:00,SystemResetWarning,0814.7,5.00,000.00,023.6,023.1,000.0,031.8,025.4,13.6,0004.5,0025.81,0007.19,0005.93
2024-02-02 20:31:00,SystemResetWarning,0814.7,5.00,000.00,023.6,023.1,000.0,031.8,025.4,13.5,0004.5,0025.91,0007.15,0005.94
2024-02-02 20:32:00,SystemResetWarning,0814.8,5.00,000.00,023.7,023.1,000.0,031.9,025.4,13.7,0004.0,0026.18,0007.18,0005.97
2024-02-02 20:33:00,SystemResetWarning,0814.7,5.01,000.00,023.7,023.1,000.0,031.9,025.4,13.8,0004.1,0025.76,0007.17,0005.98
2024-02-02 20:34:00,SystemResetWarning,0814.6,5.01,000.00,023.7,023.2,000.0,031.9,025.5,13.5,0004.4,0025.25,0007.12,0006.00
2024-02-02 20:35:00,SystemResetWarning,0814.7,5.00,000.00,023.7,023.2,000.0,031.9,025.5,13.4,0004.3,0025.66,0007.16,0006.03
2024-02-02 20:36:00,SystemResetWarning,0814.6,5.00,000.00,023.7,023.2,000.0,031.9,025.5,13.4,0004.1,0025.08,0007.15,0006.05
2024-02-02 20:37:00,SystemResetWarning,0814.6,4.99,000.00,023.7,023.2,000.0,031.9,025.5,13.4,0004.0,0024.37,0007.16,0006.07
2024-02-02 20:38:00,SystemResetWarning,0814.6,5.00,000.00,023.8,023.2,000.0,032.0,025.5,13.4,0004.0,0022.29,0007.14,0006.06
2024-02-02 20:39:00,SystemResetWarning,0814.6,5.00,000.00,023.8,023.2,000.0,032.0,025.5,13.3,0004.1,0021.59,0007.18,0006.07
2024-02-02 20:40:00,SystemResetWarning,0814.5,4.99,000.00,023.8,023.3,000.0,032.0,025.5,13.3,0004.1,0020.72,0007.22,0006.09
2024-02-02 20:41:00,SystemResetWarning,0814.5,5.00,000.00,023.8,023.3,000.0,032.0,025.5,13.4,0004.1,0021.66,0007.21,0006.10
2024-02-02 20:42:00,SystemResetWarning,0814.5,5.01,000.00,023.8,023.3,000.0,032.0,025.5,13.2,0003.9,0022.13,0007.20,0006.12
2024-02-02 20:43:00,SystemResetWarning,0814.5,5.01,000.00,023.8,023.3,000.0,032.0,025.6,13.3,0004.0,0021.59,0007.20,0006.12
2024-02-02 20:44:00,SystemResetWarning,0814.5,5.00,000.00,023.9,023.3,000.0,032.0,025.6,13.2,0003.5,0022.05,0007.24,0006.13
2024-02-02 20:45:00,SystemResetWarning,0814.5,5.00,000.00,023.9,023.3,000.0,032.1,025.6,13.2,0003.2,0023.24,0007.26,0006.13
2024-02-02 20:46:00,SystemResetWarning,0814.5,5.00,000.00,023.9,023.4,000.0,032.1,025.6,13.1,0003.1,0023.53,0007.27,0006.13
2024-02-02 20:47:00,SystemResetWarning,0814.5,5.00,000.00,023.9,023.4,000.0,032.1,025.6,13.1,0003.0,0023.26,0007.23,0006.13
2024-02-02 20:48:00,SystemResetWarning,0814.4,5.00,000.00,023.9,023.4,000.0,032.1,025.6,13.2,0003.0,0023.79,0007.21,0006.14
2024-02-02 20:49:00,SystemResetWarning,0814.4,5.01,000.00,023.9,023.4,000.0,032.1,025.7,13.2,0002.6,0024.98,0007.18,0006.16
2024-02-02 20:50:00,SystemResetWarning,0814.4,5.00,000.00,024.0,023.4,000.0,032.1,025.7,13.3,0002.3,0024.11,0007.22,0006.17
2024-02-02 20:51:00,SystemResetWarning,0814.3,5.00,000.00,024.0,023.5,000.0,032.1,025.7,13.3,0002.5,0024.72,0007.28,0006.17
2024-02-02 20:52:00,SystemResetWarning,0814.3,5.01,000.00,024.0,023.5,000.0,032.2,025.7,13.3,0002.0,0023.90,0007.28,0006.17
2024-02-02 20:53:00,SystemResetWarning,0814.4,5.00,000.00,024.0,023.5,000.0,032.2,025.8,13.2,0002.1,0023.42,0007.31,0006.17
2024-02-02 20:54:00,SystemResetWarning,0814.4,5.00,000.00,024.0,023.5,000.0,032.2,025.8,13.2,0002.1,0023.34,0007.31,0006.18
2024-02-02 20:55:00,SystemResetWarning,0814.4,5.00,000.00,024.0,023.5,000.0,032.2,025.9,13.2,0002.8,0022.13,0007.32,0006.18
2024-02-02 20:56:00,SystemResetWarning,0814.5,4.99,000.00,024.1,023.5,000.0,032.2,025.9,13.1,0003.1,0021.09,0007.36,0006.20
2024-02-02 20:57:00,SystemResetWarning,0814.5,5.01,000.00,024.1,023.6,000.0,032.3,025.9,13.2,0002.9,0020.32,0007.39,0006.22
2024-02-02 20:58:00,SystemResetWarning,0814.5,5.00,000.00,024.1,023.6,000.0,032.3,025.9,13.1,0003.2,0020.62,0007.45,0006.25
2024-02-02 20:59:00,SystemResetWarning,0814.5,5.00,000.00,024.1,023.6,000.0,032.3,025.9,13.2,0003.3,0019.45,0007.48,0006.27
